Regional Weather Roundup
Issued by NWS Nashville, TN

Home | Current Version | Previous Version | Text Only | Print | Product List | Glossary On
Versions: 1 2 3 4 5 6 7 8 9 10 11 12 13 14 15 16 17 18 19 20 21 22 23 24 25 26 27 28 29 30 31 32 33 34 35 36 37 38 39 40 41 42 43 44 45 46 47 48 49 50
000
ASUS44 KOHX 260315
RWROHX
MIDDLE TENNESSEE HOURLY WEATHER ROUNDUP
NATIONAL WEATHER SERVICE NASHVILLE TN
900 PM CST TUE NOV 25 2014

NOTE: "FAIR" INDICATES FEW OR NO CLOUDS BELOW 12,000 FEET WITH
NO SIGNIFICANT WEATHER AND/OR OBSTRUCTIONS TO VISIBILITY.

* THESE REPORTS ARE NOT UNDER NWS QUALITY CONTROL AND MAY NOT
  REPORT WEATHER SUCH AS PRECIPITATION AND FOG.


TNZ005>011-023>034-057-059-062>066-078-080-260400
...NORTHERN MIDDLE TENNESSEE...

CITY           SKY/WX    TMP DP  RH WIND       PRES   REMARKS
CLARKSVILLE    MOCLDY    34  28  79 N6        30.18R WCI  29
CROSSVILLE     CLOUDY    43  28  55 CALM      30.11R
GALLATIN         N/A     40  29  65 N3        30.16S
DICKSON        MOCLDY    34  27  75 CALM      30.16R
LEBANON        CLOUDY    39  30  70 CALM      30.13F
LIVINGSTON     CLOUDY    54  23  30 NE6       30.12F
NASHVILLE      CLOUDY    42  27  55 NW6       30.17R
WEST NASHVILLE   N/A     39  27  60 NW3       30.17F
PORTLAND         N/A     36  28  75 N6        30.15S WCI  31
SMYRNA         CLOUDY    40  31  70 N3        30.18R
SPARTA         CLEAR     41  28  60 CALM      30.13R
$$
TNZ056-058-060-061-075>077-079-093>097-260400
...SOUTHERN MIDDLE TENNESSEE...

CITY           SKY/WX    TMP DP  RH WIND       PRES   REMARKS
COLUMBIA       CLEAR     41  28  60 CALM      30.15R
LEWISBURG      CLOUDY    41  29  62 W3        30.16R
MCMINNVILLE    PTCLDY    41  28  60 CALM      30.13S
MURFREESBORO   CLOUDY    41  27  57 N3        30.15R
SHELBYVILLE    CLEAR     41  30  65 VRB7      30.16R
TULLAHOMA      PTCLDY    39  27  60 NW6       30.14R WCI  35
WINCHESTER     MOCLDY    43  30  61 CALM      30.15R
$$


...KEY TO REMARKS...
VSB - VISIBILITY IN MILES
WCI - WIND CHILL INDEX
HX  - HEAT INDEX



USA.gov is the U.S. government's official web portal to all federal, state and local government web resources and services.